COSMOS 2251 DEB, 34114

Orbit data source: Space-Track

COSMOS 2251 DEB, 34114 is space debris in LEO originally from a launch on Wed, 16 Jun 1993 UTC launched from the Plesetsk Missile And Space Complex (PKMTR). The debris from Iridium 33, an American commercial communications satellite, has been tracked extensively since its accidental collision with the defunct Russian satellite Cosmos 2251 in 2009. This event, occurring at high speed in low Earth orbit (LEO), generated thousands of pieces of space debris, significantly increasing the risk of further collisions. The Iridium 33 debris cloud has impacted space traffic management and orbital debris mitigation strategies, making it a subject of ongoing study in space situational awareness.

Loading next visibility...
Identifier
34114, 1993-036KK
Orbit
LEO
Country
Flag of CISCIS
Related business
Manufacturer
Unknown
Mission
Spacecraft
Bus & Motor
Unknown
Mass
Unknown
Launch date (UTC)
1993-06-16 (33 years ago)
Launch vehicle
Unknown
Launch site
Plesetsk Missile And Space Complex (PKMTR)
Object type
Payload
Rocket body
Debris
Shape & HBR
Unknown shape, 0.1 m
Radar Cross Section
Medium (>0.1 m² and <1 m²)

Expand to show TLE details & history
Last TLE update: 21 hours ago

TLE from 21 hours ago
0 COSMOS 2251 DEB
1 34114U 93036KK  26235.59852203  .00004705  00000-0  95826-3 0  9995
2 34114  74.0566 280.8801 0043647 220.1416 294.9046 14.60701458915038
Epoch: 2026-08-23T14:21Z
TLE epoch observation values (Epoch: 2026-08-23T14:21:52.303Z)
Latitude
24.39903°
Longitude
-93.88522°
Altitude
680.694 km
Speed
7.525 km/s
True Right ascension
06h 13m 53s
True Declination
24° 16' 07"
Sunlit
Object was in daylight at epoch
Visualization orbit readout
Latitude
Unknown
Longitude
Unknown
Altitude
Unknown
Speed
Unknown
Apparent Right ascension
Unknown
Apparent Declination
Unknown
Sunlit
N/A
Visualization observer readout
Local Sidereal Time
02:12:00
Azimuth
Unknown
Elevation
Unknown
Doppler factor
Unknown
Orbital elements
Apogee altitude
719.349 km
Perigee altitude
657.661 km
Semi-major axis
7,066.642 km
Eccentricity
0.00436
Inclination
74.0566°
RAAN
280.8801°
Arg. of periapsis
220.1416°
True anomaly
294.44991°
Mean anomaly
294.9046°
Eccentric anomaly
294.67736°
Mean motion
3.65362 °/min
Orbital period
98.53 mins
BSTAR
0.00095826
Loading maneuver chart data...
Computing Atmospheric mass density...

Documentation

Showing up to 5 results
|